Погода в Старомышастовской

Россия / Краснодарский край     45°20′24″N   39°04′36″E
В апреле 2022 года жителям России запретили посещать сайт meteo.paraplan.net по решению Генеральной прокуратуры. Аудитория сайта уменьшилась в 10 раз. Владельцы сайта не видят смысла в поддержке погодного сервера в таких условиях. Сайт будет закрыт в октябре.
темп.,
°C
ветер,
м/с
пор.,
м/с
влажн.,
%
обл.,
%
осадки,
мм/ч
давл.,
гПа
погр.,
м
25 сентября, вс
вс2500:00+11зюз411865 0.3 1019269
03:00+10зюз49820 0.1 1020206
06:00+10юз410821 0.0 1021202
09:00+15зюз69535 0.0 1022856
12:00+19зюз79355 0.0 10212293
15:00+20з89305 0.0 10212365
18:00+17зюз610470 0.0 1021691
21:00+13юз386510 0.0 1022153
26 сентября, пн
пн2600:00+13юз347131 0.0 102164
03:00+12ююз23825 0.0 102132
06:00+11ююв34895 0.0 102051
09:00+17ююв346140 0.0 1020407
12:00+21ююв234477 0.0 10191163
15:00+22ююв223776 0.0 10171498
18:00+19вюв33455 0.0 101725
21:00+17вюв224727 0.0 101617
27 сентября, вт
вт2700:00+14юв345514 0.0 101541
03:00+13юв22699 0.0 101423
06:00+12ююв2266100 0.0 101314
09:00+18ююв2239100 0.0 1012225
12:00+24ююв4525100 0.0 1011621
15:00+26юв4424100 0.0 1009871
18:00+22вюв4634100 0.0 100894
21:00+20вюв3440100 0.0 100764
28 сентября, ср
ср2800:00+18юв3451100 0.0 100668
03:00+18юв4651100 0.0 100488
06:00+16ююв3351100 0.0 100422
09:00+21з2332100 0.0 1005151
12:00+24юз1228100 0.0 1005429
15:00+25з363796 0.0 1005787
18:00+21зюз475983 0.0 1007226
21:00+19ююз37768 0.0 1008173
29 сентября, чт
чт2900:00+17ююз38896 0.0 1009238
03:00+17ююз39905 0.0 1010224
06:00+16юз36883 0.0 1010114
09:00+21зюз46650 0.0 1011697
12:00+25з45450 0.0 10111611
15:00+26зсз55355 0.0 10112140
18:00+22сз48488 0.0 1013179
21:00+18ссз3560100 0.0 101590